Location: Campestrin
(46.4667°N, 11.7167°E)
Time: 15:12:16
(UTC+00:00)

Cosmos 1763 Rocket - Pass Details

Date: 18 April 2021
Orbit: 733 x 779 km, 74.0° (Epoch: 06 May)

Event Time Altitude Azimuth Distance (km) Brightness Sun altitude
Rises 21:56:45 0° 334° (NNW) 3,178 7.9 -29.9°
Reaches altitude 10° 21:59:09 10° 329° (NNW) 2,248 6.8 -30.1°
Enters shadow 22:02:58 43° 295° (WNW) 1,023 4.3 -30.3°
